Alturas, CA

11:02 PM PDT on August 25, 2016 (GMT -0700)
Alturas Municipal

Weather History for KAAT - April, 2014

Change the Weather History Date:

Tuesday, April 22, 2014

  Actual Average Record
Temperature  
Mean Temperature 43 °F 45 °F  
Max Temperature 52 °F 60 °F 84 °F (2012)
Min Temperature 33 °F 30 °F 14 °F (1961)
Degree Days  
Heating Degree Days 22 20  
Month to date heating degree days 385 501  
Since 1 July heating degree days 5894 6193  
Cooling Degree Days 0 0  
Month to date cooling degree days 0 0  
Year to date cooling degree days 0 0  
Moisture  
Dew Point 27 °F    
Average Humidity 60    
Maximum Humidity 96    
Minimum Humidity 24    
Precipitation  
Precipitation 0.03 in 0.06 in 0.58 in (1988)
Month to date precipitation 0.23 1.13  
Year to date precipitation 3.99 5.75  
Sea Level Pressure  
Sea Level Pressure 29.92 in    
Wind  
Wind Speed 12 mph (West)    
Max Wind Speed 26 mph    
Max Gust Speed 34 mph    
Visibility 9 miles    
Events Snow    
T = Trace of Precipitation, MM = Missing Value Source: NWS Daily Summary

Daily Weather History Graph

Daily Weather History Graph

Search for Another Location

Airport or City:

Trip Planner

Search our weather history database for the weather conditions in past years. The results will help you decide how hot, cold, wet, or windy it might be!

Date:

Astronomy

Apr. 22, 2014 Rise Set
Actual Time 6:11 AM PDT 7:50 PM PDT
Civil Twilight 5:42 AM PDT 8:19 PM PDT
Nautical Twilight 5:06 AM PDT 8:55 PM PDT
Astronomical Twilight 4:29 AM PDT 9:33 PM PDT
Moon 2:09 AM PDT (4/22) 12:52 PM PDT (4/22)
Length of Visible Light 14h 37m
Length of Day
13h 38m
Last Quarter, 45% of the Moon is Illuminated
Apr 22
Last Quarter
Apr 28
New
May 6
First Quarter
May 14
Full
May 21
Last Quarter

Hourly Weather History & Observations

Time (PDT) Temp. Windchill Dew Point Humidity Pressure Visibility Wind Dir Wind Speed Gust Speed Precip Events Conditions
12:55 AM 48.9 °F - 26.1 °F 41% 29.77 in 10.0 mi South 16.1 mph - N/A   Overcast
1:55 AM 48.0 °F - 28.0 °F 46% 29.75 in 10.0 mi South 13.8 mph - N/A   Overcast
2:55 AM 46.0 °F 41.0 °F 26.1 °F 46% 29.74 in 10.0 mi WSW 10.4 mph - N/A   Mostly Cloudy
3:55 AM 43.0 °F 37.2 °F 23.0 °F 45% 29.75 in 10.0 mi West 10.4 mph - N/A   Overcast
4:55 AM 42.1 °F 34.9 °F 26.1 °F 53% 29.74 in 10.0 mi West 13.8 mph - N/A   Overcast
5:55 AM 41.0 °F 33.1 °F 28.0 °F 60% 29.78 in 10.0 mi West 15.0 mph - N/A   Overcast
6:32 AM 36.0 °F 25.3 °F 30.9 °F 82% 29.85 in 8.0 mi NW 19.6 mph 24.2 mph 0.00 in Snow Light Snow
6:55 AM 36.0 °F 29.6 °F 30.9 °F 82% 29.82 in 10.0 mi NW 8.1 mph - 0.00 in   Overcast
7:34 AM 36.0 °F 30.3 °F 30.9 °F 82% 29.87 in 9.0 mi West 6.9 mph - 0.00 in Snow Light Snow
7:55 AM 37.0 °F 28.9 °F 30.0 °F 76% 29.86 in 9.0 mi West 12.7 mph - 0.00 in   Overcast
8:24 AM 37.9 °F 29.6 °F 30.9 °F 76% 29.88 in 10.0 mi WNW 13.8 mph - N/A   Overcast
8:55 AM 37.9 °F 29.2 °F 28.9 °F 70% 29.87 in 10.0 mi WNW 15.0 mph - N/A   Overcast
9:48 AM 42.1 °F 34.2 °F 28.0 °F 58% 29.89 in 10.0 mi NW 16.1 mph - N/A   Overcast
9:55 AM 43.0 °F 35.4 °F 28.0 °F 56% 29.87 in 10.0 mi NW 16.1 mph 25.3 mph N/A   Overcast
10:55 AM 43.0 °F 34.8 °F 23.0 °F 45% 29.88 in 10.0 mi NW 18.4 mph 27.6 mph N/A   Overcast
11:55 AM 46.0 °F 38.0 °F 19.0 °F 34% 29.89 in 10.0 mi WNW 21.9 mph 28.8 mph 0.00 in   Mostly Cloudy
12:55 PM 48.0 °F - 17.1 °F 29% 29.88 in 10.0 mi WNW 19.6 mph 26.5 mph N/A   Partly Cloudy
1:55 PM 50.0 °F - 17.1 °F 27% 29.88 in 10.0 mi NW 13.8 mph 28.8 mph N/A   Partly Cloudy
2:55 PM 48.0 °F - 16.0 °F 28% 29.90 in 10.0 mi WNW 17.3 mph 25.3 mph N/A   Mostly Cloudy
3:55 PM 50.0 °F - 16.0 °F 26% 29.90 in 10.0 mi NW 18.4 mph 31.1 mph N/A   Scattered Clouds
4:55 PM 50.0 °F - 18.0 °F 28% 29.92 in 10.0 mi WNW 21.9 mph 28.8 mph N/A   Mostly Cloudy
5:55 PM 48.0 °F - 16.0 °F 28% 29.93 in 10.0 mi WNW 15.0 mph 23.0 mph N/A   Scattered Clouds
6:51 PM 39.2 °F 30.8 °F 26.6 °F 61% 29.97 in 10.0 mi SW 15.0 mph - N/A   Mostly Cloudy
6:55 PM 39.0 °F 31.0 °F 28.0 °F 65% 29.98 in 10.0 mi SW 13.8 mph - N/A   Mostly Cloudy
7:55 PM 36.0 °F 32.1 °F 30.9 °F 82% 30.01 in 10.0 mi WSW 4.6 mph - N/A   Overcast
8:26 PM 34.0 °F 27.2 °F 30.9 °F 89% 30.02 in 2.5 mi West 8.1 mph - 0.00 in Snow Light Snow
8:29 PM 33.1 °F 26.1 °F 30.9 °F 92% 30.02 in 1.8 mi West 8.1 mph - 0.01 in Snow Light Snow
8:36 PM 33.1 °F - 32.0 °F 96% 30.02 in 1.5 mi Calm Calm - 0.02 in Snow Light Snow
8:53 PM 33.8 °F - 30.2 °F 87% 30.02 in 2.0 mi Calm Calm - 0.03 in Snow Light Snow
8:55 PM 33.1 °F 30.0 °F 30.9 °F 92% 30.05 in 2.5 mi West 3.5 mph - 0.03 in Snow Light Snow
9:02 PM 33.1 °F 28.7 °F 30.9 °F 92% 30.02 in 9.0 mi SW 4.6 mph - 0.00 in   Overcast
9:12 PM 34.0 °F 28.8 °F 32.0 °F 92% 30.03 in 9.0 mi SSW 5.8 mph - 0.00 in Snow Light Snow
9:55 PM 34.0 °F 29.8 °F 32.0 °F 92% 30.04 in 10.0 mi South 4.6 mph - 0.00 in   Overcast
10:37 PM 34.0 °F - 30.9 °F 89% 30.03 in 10.0 mi Calm Calm - N/A   Mostly Cloudy
10:46 PM 34.0 °F 31.0 °F 32.0 °F 92% 30.03 in 10.0 mi SE 3.5 mph - N/A   Mostly Cloudy
10:55 PM 33.1 °F 30.0 °F 30.9 °F 92% 30.05 in 10.0 mi SSE 3.5 mph - N/A   Mostly Cloudy
11:19 PM 34.0 °F 29.8 °F 30.9 °F 89% 30.04 in 10.0 mi SSE 4.6 mph - N/A   Mostly Cloudy
11:35 PM 34.0 °F - 32.0 °F 92% 30.04 in 10.0 mi Calm Calm - N/A   Overcast
11:55 PM 34.0 °F - 32.0 °F 92% 30.05 in 10.0 mi Calm Calm - N/A   Overcast